Location: Dampvalley
(47.9094°N, 6.1967°E)
Time: 12:53:52
(UTC+00:00)

DELFI C3 - Visible Passes

Search period start: 06 December 2021 00:00
Search period end: 16 December 2021 00:00
Orbit: 529 x 543 km, 97.4° (Epoch: 05 December)

Date Brightness Start Highest point End Pass type
(mag) Time Alt. Az. Time Alt. Az. Time Alt. Az.
06 Dec ? 06:24:54 10° ENE 06:27:01 14° E 06:29:09 10° ESE visible
07 Dec ? 06:17:02 10° ENE 06:18:22 11° E 06:19:42 10° ESE visible
15 Dec ? 06:41:23 10° NE 06:44:25 21° E 06:47:26 10° SE visible
